Temp
4 2 1 -0 -1 -1 -1 0 0 1 2 -0 2 3 3 4 5 5 7 8 8 9
3 2 1 -1 -2 -1 -1 -1 -1 -0 0 -1 -0 1 1 2 3 4 5 6 7 7
0 -0 -1 -2 -2 -2 -2 -2 -2 -1 -2 -2 -2 -1 -0 0 0 1 1 1 2 3
-1 -2 -2 -3 -3 -3 -3 -3 -3 -3 -2 -3 -4 -3 -2 -1 -1 0 0 1 0 0
-3 -3 -3 -4 -4 -4 -4 -4 -4 -4 -4 -5 -5 -5 -4 -3 -2 -1 -1 -1 -1 -0
-4 -5 -5 -5 -5 -6 -5 -5 -5 -5 -5 -6 -6 -6 -5 -5 -5 -4 -3 -4 -3 -3
-6 -6 -6 -6 -7 -7 -7 -7 -6 -6 -6 -7 -7 -7 -6 -6 -5 -5 -4 -4 -5 -5
-7 -7 -7 -7 -7 -7 -7 -7 -7 -7 -7 -7 -8 -9 -7 -6 -6 -6 -6 -6 -6 -6
-8 -8 -8 -8 -7 -7 -7 -7 -7 -7 -8 -8 -8 -8 -8 -8 -7 -7 -7 -7 -7 -7
-8 -8 -9 -9 -8 -7 -7 -7 -7 -7 -7 -8 -9 -8 -8 -8 -8 -7 -8 -8 -8 -7
-8 -8 -8 -8 -8 -8 -7 -7 -7 -8 -9 -8 -11 -9 -8 -8 -8 -8 -8 -9 -8 -8
-8 -8 -8 -8 -8 -8 -8 -8 -8 -8 -8 -9 -10 -11 -8 -7 -8 -8 -8 -8 -9 -8
-8 -8 -8 -8 -8 -9 -8 -9 -9 -9 -9 -9 -10 -12 -10 -8 -8 -8 -8 -8 -8 -8
-8 -9 -9 -8 -8 -8 -9 -9 -9 -9 -9 -9 -9 -10 -10 -9 -8 -9 -8 -8 -8 -8
Height
1466 1460 1454 1447 1441 1436 1430 1423 1418 1413 1406 1403 1400 1394 1387 1380 1375 1372 1367 1364 1362 1360
1465 1459 1453 1447 1442 1436 1430 1423 1417 1412 1407 1403 1398 1392 1385 1377 1369 1367 1363 1361 1359 1357
1465 1460 1454 1448 1442 1437 1431 1424 1419 1413 1409 1405 1399 1393 1386 1378 1373 1369 1364 1363 1361 1357
1466 1461 1456 1449 1444 1439 1433 1427 1420 1416 1409 1406 1404 1396 1388 1382 1378 1372 1367 1367 1365 1362
1468 1463 1458 1452 1446 1442 1436 1430 1425 1419 1413 1412 1406 1398 1390 1385 1381 1375 1370 1369 1369 1362
1470 1465 1460 1455 1450 1445 1440 1433 1427 1422 1415 1414 1409 1403 1395 1390 1385 1381 1375 1374 1372 1370
1473 1468 1464 1460 1454 1448 1443 1437 1430 1427 1422 1418 1414 1409 1402 1395 1391 1386 1381 1381 1379 1378
1477 1473 1470 1464 1457 1452 1447 1442 1437 1432 1428 1424 1417 1414 1407 1402 1398 1392 1389 1387 1385 1385
1481 1477 1474 1468 1462 1456 1451 1445 1440 1434 1429 1425 1422 1419 1414 1410 1404 1399 1396 1393 1394 1392
1486 1482 1478 1473 1466 1460 1455 1451 1444 1438 1433 1430 1428 1425 1420 1416 1410 1405 1402 1401 1400 1397
1489 1486 1482 1477 1470 1465 1461 1455 1450 1445 1441 1437 1435 1431 1426 1421 1416 1411 1409 1406 1404 1401
1493 1489 1485 1479 1474 1470 1466 1461 1455 1451 1446 1442 1439 1435 1430 1425 1421 1417 1415 1412 1407 1404
1496 1492 1488 1483 1479 1476 1471 1467 1462 1457 1452 1448 1443 1440 1434 1430 1426 1422 1420 1417 1414 1410
1500 1496 1492 1487 1483 1480 1476 1472 1467 1463 1458 1453 1449 1444 1440 1435 1430 1427 1424 1420 1416 1414
Wind_Speed
37 38 36 34 31 28 25 24 22 19 16 20 18 18 15 13 12 12 11 10 10 14
34 33 32 30 26 25 22 21 19 17 16 18 19 19 19 18 17 12 10 10 7 6
31 29 28 26 25 22 20 19 17 16 16 18 21 18 19 23 25 24 24 21 13 8
27 26 24 24 22 20 19 19 18 18 17 19 20 21 21 22 22 23 23 24 26 26
23 23 23 22 20 18 18 18 19 19 19 22 24 26 26 27 26 25 24 24 24 27
21 23 23 22 20 20 18 19 20 22 24 27 29 28 28 27 29 28 28 27 27 28
21 22 22 22 23 24 23 23 23 24 25 29 30 32 31 29 28 30 30 29 27 27
19 21 23 22 22 23 22 20 20 22 23 25 28 30 30 30 31 31 30 30 29 27
20 19 19 21 22 22 23 23 23 23 25 27 27 25 27 28 30 31 31 31 29 28
16 17 18 19 21 23 23 23 25 26 27 30 29 25 25 27 29 30 30 30 28 27
17 16 16 18 20 22 23 24 25 26 28 29 30 26 25 25 27 28 29 28 28 27
16 15 15 17 19 20 21 23 26 26 27 29 30 30 27 27 27 26 27 26 27 26
15 15 16 17 18 18 20 23 24 26 28 27 28 30 30 29 29 28 27 25 24 24
17 17 17 17 17 18 20 22 24 27 29 30 29 29 29 29 29 28 26 26 25 23
Wind_Direction
347 348 346 341 339 340 342 343 344 347 353 18 8 359 354 336 329 330 328 297 272 257
345 345 346 346 344 343 344 348 353 356 4 29 30 38 39 32 21 6 345 325 314 313
345 349 351 351 352 353 356 360 7 14 21 29 40 40 50 54 55 55 54 50 41 43
354 359 359 1 4 6 8 13 22 33 36 31 28 37 42 46 47 54 57 55 49 49
2 7 7 7 7 10 14 22 33 39 45 41 32 37 38 38 40 41 46 49 49 49
10 8 7 11 13 18 23 27 36 39 45 40 33 34 38 39 42 43 43 43 45 46
16 18 16 20 24 28 31 34 36 41 46 46 35 37 41 46 49 50 48 45 46 45
23 24 30 32 31 34 40 47 49 53 51 43 39 30 37 45 51 54 54 52 48 45
30 31 25 23 28 31 36 42 48 47 46 39 35 32 41 45 49 52 51 52 52 51
32 27 26 27 32 35 38 39 45 47 46 48 38 37 43 44 47 47 47 46 44 46
22 22 19 24 32 35 37 41 44 48 48 48 38 38 39 40 42 43 43 44 39 40
19 18 19 30 37 39 38 41 43 43 45 44 41 30 37 37 40 40 38 37 38 35
26 29 34 38 37 40 43 46 47 46 44 42 39 32 31 34 34 33 32 33 32 31
46 45 44 44 44 46 49 50 48 47 44 40 36 32 29 26 26 25 22 23 24 24